Regional Weather Roundup
Issued by NWS

Home | Current Version | Previous Version | Text Only | Print | Product List | Glossary Off
Versions: 1 2 3 4 5 6 7 8 9 10 11 12 13 14 15 16 17 18 19 20 21 22 23 24 25 26 27 28 29 30 31 32 33 34 35 36 37 38 39 40 41 42 43 44 45 46 47 48 49 50

000
ASUS45 KCYS 291010
RWRWY

WYOMING REGIONAL WEATHER ROUNDUP
NATIONAL WEATHER SERVICE CHEYENNE WY
400 AM MDT MON SEP 29 2014

NOTE:  "FAIR" INDICATES FEW OR NO CLOUDS BELOW 12,000 FEET
WITH NO SIGNIFICANT WEATHER AND/OR OBSTRUCTIONS TO VISIBILITY.

WYZ001-291100-
YELLOWSTONE NATIONAL PARK

CITY           SKY/WX    TMP DP  RH WIND       PRES   REMARKS
LK YELLOWSTONE   N/A     37  35  92 CALM      30.11F
W YELLOWSTONE  NOT AVBL

$$
WYZ002>013-054>058-071-098>099-291100-
NORTHERN WYOMING

CITY           SKY/WX    TMP DP  RH WIND       PRES   REMARKS
JACKSON        CLOUDY    43  43 100 S3        30.05F
CODY           CLOUDY    43  43 100 E6        30.09S
GREYBULL       RAIN      48  47  96 S7        30.07F FOG
WORLAND        RAIN      47  46  97 NE5       30.06F FOG
SHERIDAN       LGT RAIN  48  46  93 CALM      30.07F
BUFFALO        LGT RAIN  45  44  97 SE6       30.10F FOG
GILLETTE       LGT RAIN  49  47  93 CALM      30.07F FOG
HULETT         CLOUDY    48  45  87 E9G16     30.10
NEWCASTLE      LGT RAIN  50  48  93 CALM      30.07

$$
WYZ014>020-022>026-101>103-291100-
CENTRAL WYOMING

CITY           SKY/WX    TMP DP  RH WIND       PRES   REMARKS
BIG PINEY      CLOUDY    43  40  89 W6        30.07S
PINEDALE       CLOUDY    41  41 100 CALM      30.08S
DUBOIS         CLOUDY    41  39  93 SE5       30.08F
LANDER         CLOUDY    47  46  97 SW6       30.06S
RIVERTON       FOG       46  46 100 CALM      30.07S VSB 1/4
CASPER         CLOUDY    46  44  93 W7        30.08R
DOUGLAS        HVY RAIN  48  47  96 E13       30.08F FOG

$$
WYZ021-027>030-104>119-291100-
SOUTHERN WYOMING

CITY           SKY/WX    TMP DP  RH WIND       PRES   REMARKS
EVANSTON       LGT RAIN  41  39  93 SW10      30.06F
KEMMERER       DRIZZLE   39  37  93 N5        30.07S
FORT BRIDGER   PTSUNNY   43  42  95 W8        30.09S
ROCK SPRINGS   PTCLDY    43  40  89 SE8       30.07F
DIXON          FAIR      43  40  89 NE3       30.12F
RAWLINS        CLEAR     41  39  93 NE6       30.11F
SARATOGA         N/A     41  37  87 CALM      30.13S
LARAMIE        CLOUDY    45  43  93 NE3       30.13F
CHEYENNE       CLOUDY    49  46  90 N8        30.08F
TORRINGTON     TSTM      52  51  97 W15       30.06R
PINE BLUFFS    LGT RAIN  50  50 100 NW16G22   30.07R

$$



USA.gov is the U.S. government's official web portal to all federal, state and local government web resources and services.